Regional Weather Roundup
Issued by NWS

Home | Current Version | Previous Version | Text Only | Print | Product List | Glossary On
Versions: 1 2 3 4 5 6 7 8 9 10 11 12 13 14 15 16 17 18 19 20 21 22 23 24 25 26 27 28 29 30 31 32 33 34 35 36 37 38 39 40 41 42 43 44 45 46 47 48 49 50
000
ASUS43 KLSX 221407
RWRMO

WEATHER SUMMARY FOR MISSOURI
NATIONAL WEATHER SERVICE SPRINGFIELD MO
900 AM CDT THU JUN 22 2017

NOTE: "FAIR" INDICATES FEW OR NO CLOUDS BELOW 12,000 FEET WITH NO
       SIGNIFICANT WEATHER AND/OR OBSTRUCTIONS TO VISIBILITY.
       CURRENT SKY AND/OR WEATHER CONDITIONS ARE NOT AVAILABLE FOR
       CHILLICOTHE AND FARMINGTON.

MOZ001>031-035>038-043-044-053-054-221500-
...NORTHERN AND WESTERN MISSOURI...

CITY           SKY/WX    TMP DP  RH WIND       PRES   REMARKS
KANSAS CTY INT MOSUNNY   77  68  73 S18       29.77F
KANSAS C DTWN  SUNNY     80  68  66 S10       29.76F
LEE`S SUMMIT   SUNNY     77  69  76 S15       29.78F
ST JOSEPH      MOSUNNY   78  68  71 S17       29.75S
CHILLICOTHE      N/A     78  69  73 S14G20    29.78F
KIRKSVILLE     MOSUNNY   78  69  73 S15       29.80F

$$
MOZ066>068-077>081-088>096-101>105-221500-
...SOUTHWEST MISSOURI...

CITY           SKY/WX    TMP DP  RH WIND       PRES   REMARKS
SPRINGFIELD    CLOUDY    75  71  87 S10       29.84F
JOPLIN         PTSUNNY   79  72  79 SE13      29.81F
BRANSON        CLOUDY    72  72 100 SE8       29.86S FOG

$$
MOZ032>034-039>042-045>050-055>058-069>072-221500-
...CENTRAL MISSOURI...

CITY           SKY/WX    TMP DP  RH WIND       PRES   REMARKS
COLUMBIA       MOSUNNY   76  71  85 S9        29.85F
JEFFERSON CITY SUNNY     77  69  76 SE8       29.84F
ROLLA          CLOUDY    74  71  91 S12       29.87S
SEDALIA        SUNNY     79  72  79 S14       29.83F
WHITEMAN AFB   MOSUNNY   77  75  96 S14       29.79F
WARRENSBURG    SUNNY     77  68  73 S10G17    29.80F
OSAGE BEACH    CLOUDY    74  70  87 S8        29.86S

$$
MOZ051-052-059>065-221500-
...EAST CENTRAL MISSOURI...

CITY           SKY/WX    TMP DP  RH WIND       PRES   REMARKS
ST LOUIS INTL  PTSUNNY   79  69  71 S9        29.89S
SPIRIT OF STL  CLOUDY    78  72  81 S7        29.87S
ST CHARLES     CLOUDY    77  71  82 S13       29.87S

$$
MOZ072>076-082>087-097>100-106>115-221500-
...SOUTH CENTRAL AND SOUTHEAST MISSOURI...

CITY           SKY/WX    TMP DP  RH WIND       PRES   REMARKS
CAPE GIRARDEAU CLOUDY    75  70  84 SE14      29.90S
FARMINGTON     CLOUDY    75  71  87 S10       29.90F
POPLAR BLUFF   CLOUDY    75  72  90 SE9       29.88S
WEST PLAINS    CLOUDY    73  71  93 SE9       29.89S FOG

$$



USA.gov is the U.S. government's official web portal to all federal, state and local government web resources and services.